Location: Praha
(50.0830°N, 14.4670°E)
Time: 23:33:56
(UTC+02:00)

ISS - Pass Details

Date: 28 October 2020
Orbit: 417 x 420 km, 51.6° (Epoch: 23 October)

Event Time Altitude Azimuth Distance (km) Brightness Sun altitude
Exits shadow 03:36:09 11° 100° (E) 1,424 -0.4 -30.7°
Drops below altitude 10° 03:36:20 10° 97° (E) 1,472 -0.3 -30.7°
Sets 03:38:58 0° 77° (ENE) 2,364 1.2 -30.3°
